Location: Alsip
(41.6689°N, 87.7387°W)
Time: 14:26:23
(UTC+00:00)

Cosmos 1605 Rocket - Pass Details

Date: 14 July 2020
Orbit: 944 x 1007 km, 82.9° (Epoch: 05 August)

Event Time Altitude Azimuth Distance (km) Brightness Sun altitude
Exits shadow 06:25:58 65° 200° (SSW) 1,079 3.9 -26.4°
Maximum altitude 06:26:58 84° 277° (W) 997 3.9 -26.4°
Drops below altitude 10° 06:33:16 10° 6° (N) 2,731 7.4 -26.2°
Sets 06:35:46 0° 7° (N) 3,673 8.4 -26.1°
